Date,Time[GMT],Depth[m],Alt[m],T90[oC],Turb[FTU],Sal[psu]
21-Jun-2004,12:06:25,1.0,0.0,28.4635,0.0000,0.0746
21-Jun-2004,12:06:26,1.0,0.0,28.4635,0.0000,0.0746
21-Jun-2004,12:06:27,1.0,0.0,28.4633,0.0000,0.0740
21-Jun-2004,12:06:28,1.0,0.0,28.4627,0.0000,0.0735
21-Jun-2004,12:06:29,1.0,0.0,28.4627,0.0000,0.0739
21-Jun-2004,12:06:30,1.0,0.0,28.4628,0.0000,0.0743
21-Jun-2004,12:06:31,1.0,0.0,28.4625,0.0000,0.0743
21-Jun-2004,12:06:32,1.0,0.0,28.4624,0.0000,0.0741
21-Jun-2004,12:06:33,1.0,0.0,28.4622,0.0000,0.0736
21-Jun-2004,12:06:34,1.0,0.0,28.4619,0.0000,0.0736
21-Jun-2004,12:06:35,1.0,0.0,28.4620,0.0000,0.0743
21-Jun-2004,12:06:36,1.0,0.0,28.4621,0.0000,0.0749
21-Jun-2004,12:06:37,1.0,0.0,28.4616,0.0000,0.0739
21-Jun-2004,12:06:38,1.0,0.0,28.4607,0.0000,0.0734
21-Jun-2004,12:06:39,1.6,0.0,28.4609,0.0000,0.0742
21-Jun-2004,12:06:40,1.0,0.0,28.4614,0.0000,0.0748
21-Jun-2004,12:06:41,1.0,0.0,28.4613,0.0000,0.0742
21-Jun-2004,12:06:42,1.0,0.0,28.4607,0.0000,0.0736
21-Jun-2004,12:06:43,1.0,0.0,28.4607,0.0000,0.0738
21-Jun-2004,12:06:44,1.0,0.0,28.4608,0.0000,0.0743
21-Jun-2004,12:06:45,1.0,0.0,28.4608,0.0000,0.0743
21-Jun-2004,12:06:46,1.0,0.0,28.4607,0.0000,0.0741
21-Jun-2004,12:06:47,1.0,0.0,28.4603,0.0000,0.0738
21-Jun-2004,12:06:48,1.0,0.0,28.4601,0.0000,0.0736
21-Jun-2004,12:06:49,1.0,0.0,28.4603,0.0000,0.0742
21-Jun-2004,12:06:50,1.0,0.0,28.4607,0.0000,0.0746
21-Jun-2004,12:06:51,1.0,0.0,28.4606,0.0000,0.0741
21-Jun-2004,12:06:52,1.0,0.0,28.4599,0.0000,0.0735
21-Jun-2004,12:06:53,1.0,0.0,28.4598,0.0000,0.0735
21-Jun-2004,12:06:54,1.6,0.0,28.4603,0.0000,0.0747
21-Jun-2004,12:06:55,1.0,0.0,28.4604,0.0000,0.0746
21-Jun-2004,12:06:56,1.6,0.0,28.4599,0.0000,0.0740
21-Jun-2004,12:06:57,1.0,0.0,28.4594,0.0000,0.0738
21-Jun-2004,12:06:58,1.0,0.0,28.4597,0.0000,0.0741
21-Jun-2004,12:06:59,1.6,0.0,28.4599,0.0000,0.0741
21-Jun-2004,12:07:00,1.0,0.0,28.4595,0.0000,0.0740
21-Jun-2004,12:07:01,1.0,0.0,28.4594,0.0000,0.0743
21-Jun-2004,12:07:02,1.0,0.0,28.4591,0.0000,0.0739
21-Jun-2004,12:07:03,1.0,0.0,28.4587,0.0000,0.0739
21-Jun-2004,12:07:04,1.0,0.0,28.4584,0.0000,0.0739
21-Jun-2004,12:07:05,1.0,0.0,28.4584,0.0000,0.0739
21-Jun-2004,12:07:06,1.0,0.0,28.4588,0.0000,0.0743
21-Jun-2004,12:07:07,1.0,0.0,28.4588,0.0000,0.0740
21-Jun-2004,12:07:08,1.0,0.0,28.4585,0.0000,0.0739
21-Jun-2004,12:07:09,1.0,0.0,28.4586,0.0000,0.0741
21-Jun-2004,12:07:10,1.0,0.0,28.4583,0.0000,0.0738
21-Jun-2004,12:07:11,1.0,0.0,28.4581,0.0000,0.0740
21-Jun-2004,12:07:12,1.0,0.0,28.4582,0.0000,0.0741
21-Jun-2004,12:07:13,1.0,0.0,28.4582,0.0000,0.0743
21-Jun-2004,12:07:14,1.0,0.0,28.4580,0.0000,0.0740
21-Jun-2004,12:07:15,1.0,0.0,28.4575,0.0000,0.0739
21-Jun-2004,12:07:16,1.0,0.0,28.4575,0.0000,0.0741
21-Jun-2004,12:07:17,1.0,0.0,28.4575,0.0000,0.0738
21-Jun-2004,12:07:18,1.6,0.0,28.4570,0.0000,0.0741
21-Jun-2004,12:07:19,1.0,0.0,28.4572,0.0000,0.0741
21-Jun-2004,12:07:20,1.6,0.0,28.4571,0.0000,0.0741
21-Jun-2004,12:07:21,1.0,0.0,28.4569,0.0000,0.0742
21-Jun-2004,12:07:22,1.0,0.0,28.4567,0.0000,0.0739
21-Jun-2004,12:07:23,1.0,0.0,28.4565,0.0000,0.0740
21-Jun-2004,12:07:24,1.0,0.0,28.4566,0.0000,0.0743
21-Jun-2004,12:07:25,1.0,0.0,28.4564,0.0000,0.0739
21-Jun-2004,12:07:26,1.0,0.0,28.4561,0.0000,0.0741
21-Jun-2004,12:07:27,1.0,0.0,28.4562,0.0000,0.0744
21-Jun-2004,12:07:28,1.0,0.0,28.4560,0.0000,0.0739
21-Jun-2004,12:07:29,1.0,0.0,28.4560,0.0000,0.0743
21-Jun-2004,12:07:30,1.0,0.0,28.4562,0.0000,0.0744
21-Jun-2004,12:07:31,1.0,0.0,28.4562,0.0000,0.0738
21-Jun-2004,12:07:32,1.0,0.0,28.4562,0.0000,0.0739
21-Jun-2004,12:07:33,1.0,0.0,28.4562,0.0000,0.0741
21-Jun-2004,12:07:34,1.0,0.0,28.4564,0.0000,0.0743
21-Jun-2004,12:07:35,1.0,0.0,28.4564,0.0000,0.0742
21-Jun-2004,12:07:36,1.0,0.0,28.4567,0.0000,0.0741
21-Jun-2004,12:07:37,1.0,0.0,28.4566,0.0000,0.0741
21-Jun-2004,12:07:38,1.6,0.0,28.4566,0.0000,0.0741
21-Jun-2004,12:07:39,1.0,0.0,28.4566,0.0000,0.0739
21-Jun-2004,12:07:40,1.0,0.0,28.4566,0.0000,0.0738
21-Jun-2004,12:07:41,1.0,0.0,28.4567,0.0000,0.0743
21-Jun-2004,12:07:42,1.0,0.0,28.4570,0.0000,0.0744
21-Jun-2004,12:07:43,1.0,0.0,28.4571,0.0000,0.0739
21-Jun-2004,12:07:44,1.0,0.0,28.4569,0.0000,0.0739
21-Jun-2004,12:07:45,1.0,0.0,28.4571,0.0000,0.0741
21-Jun-2004,12:07:46,1.0,0.0,28.4573,0.0000,0.0743
21-Jun-2004,12:07:47,1.0,0.0,28.4572,0.0000,0.0740
21-Jun-2004,12:07:48,1.0,0.0,28.4571,0.0000,0.0735
21-Jun-2004,12:07:49,1.0,0.0,28.4575,0.0000,0.0743
21-Jun-2004,12:07:50,1.0,0.0,28.4580,0.0000,0.0748
21-Jun-2004,12:07:51,1.6,0.0,28.4578,0.0000,0.0740
21-Jun-2004,12:07:52,1.0,0.0,28.4573,0.0000,0.0734
21-Jun-2004,12:07:53,1.0,0.0,28.4575,0.0000,0.0741
21-Jun-2004,12:07:54,1.6,0.0,28.4581,0.0000,0.0745
21-Jun-2004,12:07:55,1.0,0.0,28.4580,0.0000,0.0740
21-Jun-2004,12:07:56,1.0,0.0,28.4579,0.0000,0.0741
21-Jun-2004,12:07:57,1.0,0.0,28.4580,0.0000,0.0741
21-Jun-2004,12:07:58,1.0,0.0,28.4577,0.0000,0.0736
21-Jun-2004,12:07:59,1.0,0.0,28.4580,0.0000,0.0743
21-Jun-2004,12:08:00,1.0,0.0,28.4583,0.0000,0.0745
21-Jun-2004,12:08:01,1.0,0.0,28.4581,0.0000,0.0741
21-Jun-2004,12:08:02,1.6,0.0,28.4579,0.0000,0.0737
21-Jun-2004,12:08:03,1.0,0.0,28.4577,0.0000,0.0741
21-Jun-2004,12:08:04,1.0,0.0,28.4581,0.0000,0.0744
21-Jun-2004,12:08:05,1.0,0.0,28.4581,0.0000,0.0743
21-Jun-2004,12:08:06,1.0,0.0,28.4580,0.0000,0.0741
21-Jun-2004,12:08:07,1.0,0.0,28.4577,0.0000,0.0736
21-Jun-2004,12:08:08,1.0,0.0,28.4575,0.0000,0.0737
21-Jun-2004,12:08:09,1.0,0.0,28.4579,0.0000,0.0743
21-Jun-2004,12:08:10,1.6,0.0,28.4579,0.0000,0.0742
21-Jun-2004,12:08:11,1.0,0.0,28.4577,0.0000,0.0741
21-Jun-2004,12:08:12,1.6,0.0,28.4577,0.0000,0.0742
21-Jun-2004,12:08:13,1.0,0.0,28.4577,0.0000,0.0740
21-Jun-2004,12:08:14,1.0,0.0,28.4573,0.0000,0.0737
21-Jun-2004,12:08:15,1.0,0.0,28.4575,0.0000,0.0741
21-Jun-2004,12:08:16,1.0,0.0,28.4578,0.0000,0.0742
21-Jun-2004,12:08:17,1.0,0.0,28.4577,0.0000,0.0740
21-Jun-2004,12:08:18,1.0,0.0,28.4577,0.0000,0.0742
21-Jun-2004,12:08:19,1.0,0.0,28.4578,0.0000,0.0742
21-Jun-2004,12:08:20,1.0,0.0,28.4577,0.0000,0.0739
21-Jun-2004,12:08:21,1.0,0.0,28.4577,0.0000,0.0739
21-Jun-2004,12:08:22,1.0,0.0,28.4579,0.0000,0.0742
21-Jun-2004,12:08:23,1.0,0.0,28.4579,0.0000,0.0742
21-Jun-2004,12:08:24,1.0,0.0,28.4579,0.0000,0.0741
21-Jun-2004,12:08:25,1.0,0.0,28.4579,0.0000,0.0741
21-Jun-2004,12:08:26,1.0,0.0,28.4579,0.0000,0.0741
21-Jun-2004,12:08:27,1.0,0.0,28.4579,0.0000,0.0743
21-Jun-2004,12:08:28,1.0,0.0,28.4583,0.0000,0.0746
21-Jun-2004,12:08:29,1.0,0.0,28.4581,0.0000,0.0741
21-Jun-2004,12:08:30,1.0,0.0,28.4579,0.0000,0.0740
21-Jun-2004,12:08:31,1.0,0.0,28.4578,0.0000,0.0741
21-Jun-2004,12:08:32,1.0,0.0,28.4579,0.0000,0.0743
21-Jun-2004,12:08:33,1.0,0.0,28.4581,0.0000,0.0741
21-Jun-2004,12:08:34,1.6,0.0,28.4580,0.0000,0.0739
21-Jun-2004,12:08:35,1.0,0.0,28.4582,0.0000,0.0745
21-Jun-2004,12:08:36,1.0,0.0,28.4584,0.0000,0.0744
21-Jun-2004,12:08:37,1.0,0.0,28.4582,0.0000,0.0738
21-Jun-2004,12:08:38,1.6,0.0,28.4582,0.0000,0.0741
21-Jun-2004,12:08:39,1.0,0.0,28.4584,0.0000,0.0743
21-Jun-2004,12:08:40,1.0,0.0,28.4584,0.0000,0.0741
21-Jun-2004,12:08:41,1.0,0.0,28.4586,0.0000,0.0743
21-Jun-2004,12:08:42,1.0,0.0,28.4586,0.0000,0.0742
21-Jun-2004,12:08:43,1.0,0.0,28.4583,0.0000,0.0738
21-Jun-2004,12:08:44,1.0,0.0,28.4585,0.0000,0.0743
21-Jun-2004,12:08:45,1.0,0.0,28.4588,0.0000,0.0746
21-Jun-2004,12:08:46,1.0,0.0,28.4586,0.0000,0.0740
21-Jun-2004,12:08:47,1.6,0.0,28.4586,0.0000,0.0741
21-Jun-2004,12:08:48,1.0,0.0,28.4586,0.0000,0.0743
21-Jun-2004,12:08:49,1.0,0.0,28.4586,0.0000,0.0741
21-Jun-2004,12:08:50,1.0,0.0,28.4586,0.0000,0.0742
21-Jun-2004,12:08:51,1.0,0.0,28.4586,0.0000,0.0743
21-Jun-2004,12:08:52,1.0,0.0,28.4586,0.0000,0.0743
21-Jun-2004,12:08:53,1.6,0.0,28.4586,0.0000,0.0742
21-Jun-2004,12:08:54,1.0,0.0,28.4584,0.0000,0.0741
21-Jun-2004,12:08:55,1.0,0.0,28.4584,0.0000,0.0743
21-Jun-2004,12:08:56,1.0,0.0,28.4584,0.0000,0.0744
21-Jun-2004,12:08:57,1.0,0.0,28.4582,0.0000,0.0740
21-Jun-2004,12:08:58,1.0,0.0,28.4579,0.0000,0.0741
21-Jun-2004,12:08:59,1.0,0.0,28.4581,0.0000,0.0745
21-Jun-2004,12:09:00,1.0,0.0,28.4582,0.0000,0.0744
21-Jun-2004,12:09:01,1.0,0.0,28.4582,0.0000,0.0743
21-Jun-2004,12:09:02,1.0,0.0,28.4579,0.0000,0.0741
21-Jun-2004,12:09:03,1.0,0.0,28.4577,0.0000,0.0738
21-Jun-2004,12:09:04,1.0,0.0,28.4577,0.0000,0.0742
21-Jun-2004,12:09:05,1.0,0.0,28.4581,0.0000,0.0748
21-Jun-2004,12:09:06,1.0,0.0,28.4581,0.0000,0.0743
21-Jun-2004,12:09:07,1.6,0.0,28.4575,0.0000,0.0739
21-Jun-2004,12:09:08,1.6,0.0,28.4575,0.0000,0.0741
21-Jun-2004,12:09:09,1.0,0.0,28.4577,0.0000,0.0743
21-Jun-2004,12:09:10,1.0,0.0,28.4579,0.0000,0.0744
21-Jun-2004,12:09:11,1.0,0.0,28.4577,0.0000,0.0740
21-Jun-2004,12:09:12,1.0,0.0,28.4576,0.0000,0.0740
21-Jun-2004,12:09:13,1.0,0.0,28.4580,0.0000,0.0746
21-Jun-2004,12:09:14,1.0,0.0,28.4579,0.0000,0.0742
21-Jun-2004,12:09:15,1.0,0.0,28.4579,0.0000,0.0741
21-Jun-2004,12:09:16,1.0,0.0,28.4580,0.0000,0.0744
21-Jun-2004,12:09:17,1.6,0.0,28.4584,0.0000,0.0742
21-Jun-2004,12:09:18,1.0,0.0,28.4583,0.0000,0.0741
21-Jun-2004,12:09:19,1.0,0.0,28.4584,0.0000,0.0743
21-Jun-2004,12:09:20,1.0,0.0,28.4589,0.0000,0.0746
21-Jun-2004,12:09:21,1.0,0.0,28.4590,0.0000,0.0743
21-Jun-2004,12:09:22,1.0,0.0,28.4589,0.0000,0.0741
21-Jun-2004,12:09:23,1.0,0.0,28.4589,0.0000,0.0740
21-Jun-2004,12:09:24,1.0,0.0,28.4593,0.0000,0.0744
21-Jun-2004,12:09:25,1.0,0.0,28.4597,0.0000,0.0746
21-Jun-2004,12:09:26,1.0,0.0,28.4596,0.0000,0.0741
21-Jun-2004,12:09:27,1.0,0.0,28.4597,0.0000,0.0744
21-Jun-2004,12:09:28,1.0,0.0,28.4600,0.0000,0.0746
21-Jun-2004,12:09:29,1.0,0.0,28.4600,0.0000,0.0741
21-Jun-2004,12:09:30,1.6,0.0,28.4599,0.0000,0.0742
21-Jun-2004,12:09:31,1.0,0.0,28.4605,0.0000,0.0748
21-Jun-2004,12:09:32,1.6,0.0,28.4607,0.0000,0.0744
21-Jun-2004,12:09:33,1.0,0.0,28.4605,0.0000,0.0739
21-Jun-2004,12:09:34,1.0,0.0,28.4607,0.0000,0.0745
21-Jun-2004,12:09:35,1.0,0.0,28.4612,0.0000,0.0746
21-Jun-2004,12:09:36,1.0,0.0,28.4614,0.0000,0.0742
21-Jun-2004,12:09:37,1.0,0.0,28.4614,0.0000,0.0741
21-Jun-2004,12:09:38,1.0,0.0,28.4620,0.0000,0.0742
21-Jun-2004,12:09:39,1.0,0.0,28.4629,0.0000,0.0743
21-Jun-2004,12:09:40,1.0,0.0,28.4635,0.0000,0.0744
21-Jun-2004,12:09:41,1.0,0.0,28.4637,0.0000,0.0741
21-Jun-2004,12:09:42,1.0,0.0,28.4638,0.0000,0.0741
21-Jun-2004,12:09:43,1.0,0.0,28.4643,0.0000,0.0744
21-Jun-2004,12:09:44,1.0,0.0,28.4646,0.0000,0.0743
21-Jun-2004,12:09:45,1.0,0.0,28.4646,0.0000,0.0741
21-Jun-2004,12:09:46,1.0,0.0,28.4650,0.0000,0.0744
21-Jun-2004,12:09:47,1.0,0.0,28.4652,0.0000,0.0745
21-Jun-2004,12:09:48,1.0,0.0,28.4652,0.0000,0.0741
21-Jun-2004,12:09:49,1.0,0.0,28.4652,0.0000,0.0741
21-Jun-2004,12:09:50,1.0,0.0,28.4656,0.0000,0.0743
21-Jun-2004,12:09:51,1.6,0.0,28.4661,0.0000,0.0743
21-Jun-2004,12:09:52,1.0,0.0,28.4662,0.0000,0.0742
21-Jun-2004,12:09:53,1.6,0.0,28.4663,0.0000,0.0740
21-Jun-2004,12:09:54,1.0,0.0,28.4663,0.0000,0.0742
21-Jun-2004,12:09:55,1.0,0.0,28.4668,0.0000,0.0743
21-Jun-2004,12:09:56,1.6,0.0,28.4671,0.0000,0.0743
21-Jun-2004,12:09:57,1.0,0.0,28.4673,0.0000,0.0741
21-Jun-2004,12:09:58,1.0,0.0,28.4678,0.0000,0.0744
21-Jun-2004,12:09:59,1.0,0.0,28.4682,0.0000,0.0741
21-Jun-2004,12:10:00,1.0,0.0,28.4682,0.0000,0.0738
21-Jun-2004,12:10:01,1.0,0.0,28.4687,0.0000,0.0745
21-Jun-2004,12:10:02,1.0,0.0,28.4693,0.0000,0.0747
21-Jun-2004,12:10:03,1.0,0.0,28.4694,0.0000,0.0741
21-Jun-2004,12:10:04,1.0,0.0,28.4693,0.0000,0.0739
21-Jun-2004,12:10:05,1.0,0.0,28.4697,0.0000,0.0741
21-Jun-2004,12:10:06,1.0,0.0,28.4699,0.0000,0.0741
21-Jun-2004,12:10:07,1.6,0.0,28.4703,0.0000,0.0741
21-Jun-2004,12:10:08,1.0,0.0,28.4712,0.0000,0.0746
21-Jun-2004,12:10:09,1.0,0.0,28.4715,0.0000,0.0743
21-Jun-2004,12:10:10,1.0,0.0,28.4714,0.0000,0.0738
21-Jun-2004,12:10:11,1.0,0.0,28.4718,0.0000,0.0740
21-Jun-2004,12:10:12,1.0,0.0,28.4725,0.0000,0.0744
21-Jun-2004,12:10:13,1.0,0.0,28.4731,0.0000,0.0744
21-Jun-2004,12:10:14,1.0,0.0,28.4734,0.0000,0.0739
21-Jun-2004,12:10:15,1.0,0.0,28.4735,0.0000,0.0740
21-Jun-2004,12:10:16,1.0,0.0,28.4742,0.0000,0.0744
21-Jun-2004,12:10:17,1.0,0.0,28.4748,0.0000,0.0744
21-Jun-2004,12:10:18,1.0,0.0,28.4752,0.0000,0.0740
21-Jun-2004,12:10:19,1.0,0.0,28.4753,0.0000,0.0738
21-Jun-2004,12:10:20,1.0,0.0,28.4760,0.0000,0.0745
21-Jun-2004,12:10:21,1.0,0.0,28.4766,0.0000,0.0743
21-Jun-2004,12:10:22,1.0,0.0,28.4768,0.0000,0.0740
21-Jun-2004,12:10:23,1.0,0.0,28.4775,0.0000,0.0743
21-Jun-2004,12:10:24,1.0,0.0,28.4783,0.0000,0.0743
21-Jun-2004,12:10:25,1.0,0.0,28.4788,0.0000,0.0741
21-Jun-2004,12:10:26,1.0,0.0,28.4791,0.0000,0.0739
21-Jun-2004,12:10:27,1.0,0.0,28.4797,0.0000,0.0742
21-Jun-2004,12:10:28,1.0,0.0,28.4806,0.0000,0.0745
21-Jun-2004,12:10:29,1.0,0.0,28.4812,0.0000,0.0740
21-Jun-2004,12:10:30,1.0,0.0,28.4815,0.0000,0.0741
21-Jun-2004,12:10:31,1.0,0.0,28.4821,0.0000,0.0744
21-Jun-2004,12:10:32,1.0,0.0,28.4828,0.0000,0.0741
21-Jun-2004,12:10:33,1.0,0.0,28.4834,0.0000,0.0739
21-Jun-2004,12:10:34,1.0,0.0,28.4839,0.0000,0.0742
21-Jun-2004,12:10:35,1.0,0.0,28.4845,0.0000,0.0741
21-Jun-2004,12:10:36,1.0,0.0,28.4849,0.0000,0.0741
21-Jun-2004,12:10:37,1.0,0.0,28.4855,0.0000,0.0741
21-Jun-2004,12:10:38,1.0,0.0,28.4862,0.0000,0.0743
21-Jun-2004,12:10:39,1.0,0.0,28.4868,0.0000,0.0740
21-Jun-2004,12:10:40,1.0,0.0,28.4870,0.0000,0.0739
21-Jun-2004,12:10:41,1.0,0.0,28.4876,0.0000,0.0742
21-Jun-2004,12:10:42,1.0,0.0,28.4883,0.0000,0.0743
21-Jun-2004,12:10:43,1.0,0.0,28.4888,0.0000,0.0741
21-Jun-2004,12:10:44,1.0,0.0,28.4892,0.0000,0.0740
21-Jun-2004,12:10:45,1.0,0.0,28.4898,0.0000,0.0741
21-Jun-2004,12:10:46,1.6,0.0,28.4907,0.0000,0.0744
21-Jun-2004,12:10:47,1.0,0.0,28.4913,0.0000,0.0743
21-Jun-2004,12:10:48,1.0,0.0,28.4918,0.0000,0.0741
21-Jun-2004,12:10:49,1.0,0.0,28.4924,0.0000,0.0739
21-Jun-2004,12:10:50,1.6,0.0,28.4929,0.0000,0.0741
21-Jun-2004,12:10:51,1.0,0.0,28.4939,0.0000,0.0744
21-Jun-2004,12:10:52,1.0,0.0,28.4946,0.0000,0.0741
21-Jun-2004,12:10:53,1.0,0.0,28.4950,0.0000,0.0738
21-Jun-2004,12:10:54,1.0,0.0,28.4956,0.0000,0.0741
21-Jun-2004,12:10:55,1.0,0.0,28.4965,0.0000,0.0743
21-Jun-2004,12:10:56,1.0,0.0,28.4973,0.0000,0.0743
21-Jun-2004,12:10:57,1.0,0.0,28.4980,0.0000,0.0745
21-Jun-2004,12:10:58,1.0,0.0,28.4986,0.0000,0.0741
21-Jun-2004,12:10:59,1.0,0.0,28.4990,0.0000,0.0738
21-Jun-2004,12:11:00,1.0,0.0,28.4995,0.0000,0.0741
21-Jun-2004,12:11:01,1.0,0.0,28.5003,0.0000,0.0743
21-Jun-2004,12:11:02,1.0,0.0,28.5010,0.0000,0.0743
21-Jun-2004,12:11:03,1.0,0.0,28.5013,0.0000,0.0743
21-Jun-2004,12:11:04,1.0,0.0,28.5018,0.0000,0.0743
21-Jun-2004,12:11:05,1.0,0.0,28.5020,0.0000,0.0741
21-Jun-2004,12:11:06,1.0,0.0,28.5025,0.0000,0.0741
21-Jun-2004,12:11:07,1.0,0.0,28.5031,0.0000,0.0741
21-Jun-2004,12:11:08,1.0,0.0,28.5036,0.0000,0.0743
21-Jun-2004,12:11:09,1.0,0.0,28.5038,0.0000,0.0741
21-Jun-2004,12:11:10,1.0,0.0,28.5042,0.0000,0.0742
21-Jun-2004,12:11:11,1.0,0.0,28.5046,0.0000,0.0740
21-Jun-2004,12:11:12,1.0,0.0,28.5051,0.0000,0.0741
21-Jun-2004,12:11:13,1.0,0.0,28.5057,0.0000,0.0743
21-Jun-2004,12:11:14,1.0,0.0,28.5063,0.0000,0.0743
21-Jun-2004,12:11:15,1.0,0.0,28.5068,0.0000,0.0741
21-Jun-2004,12:11:16,1.0,0.0,28.5072,0.0000,0.0739
21-Jun-2004,12:11:17,1.0,0.0,28.5078,0.0000,0.0741
21-Jun-2004,12:11:18,1.0,0.0,28.5087,0.0000,0.0743
21-Jun-2004,12:11:19,1.0,0.0,28.5092,0.0000,0.0741
21-Jun-2004,12:11:20,1.0,0.0,28.5098,0.0000,0.0739
21-Jun-2004,12:11:21,1.0,0.0,28.5105,0.0000,0.0739
21-Jun-2004,12:11:22,1.0,0.0,28.5115,0.0000,0.0741
21-Jun-2004,12:11:23,1.0,0.0,28.5121,0.0000,0.0745
21-Jun-2004,12:11:24,1.0,0.0,28.5131,0.0000,0.0746
21-Jun-2004,12:11:25,1.0,0.0,28.5140,0.0000,0.0743
21-Jun-2004,12:11:26,1.0,0.0,28.5146,0.0000,0.0740
21-Jun-2004,12:11:27,1.0,0.0,28.5152,0.0000,0.0739
21-Jun-2004,12:11:28,1.0,0.0,28.5161,0.0000,0.0741
21-Jun-2004,12:11:29,1.0,0.0,28.5172,0.0000,0.0742
21-Jun-2004,12:11:30,1.0,0.0,28.5177,0.0000,0.0738
21-Jun-2004,12:11:31,1.0,0.0,28.5185,0.0000,0.0739
21-Jun-2004,12:11:32,1.0,0.0,28.5195,0.0000,0.0741
21-Jun-2004,12:11:33,1.0,0.0,28.5204,0.0000,0.0739
21-Jun-2004,12:11:34,1.0,0.0,28.5212,0.0000,0.0739
21-Jun-2004,12:11:35,1.0,0.0,28.5222,0.0000,0.0740
21-Jun-2004,12:11:36,1.0,0.0,28.5231,0.0000,0.0737
21-Jun-2004,12:11:37,1.0,0.0,28.5239,0.0000,0.0738
21-Jun-2004,12:11:38,1.0,0.0,28.5252,0.0000,0.0743
21-Jun-2004,12:11:39,1.0,0.0,28.5262,0.0000,0.0740
21-Jun-2004,12:11:40,1.0,0.0,28.5275,0.0000,0.0738
21-Jun-2004,12:11:41,1.0,0.0,28.5285,0.0000,0.0739
21-Jun-2004,12:11:42,1.0,0.0,28.5298,0.0000,0.0740
21-Jun-2004,12:11:43,1.0,0.0,28.5313,0.0000,0.0738
21-Jun-2004,12:11:44,1.0,0.0,28.5329,0.0000,0.0738
21-Jun-2004,12:11:45,1.0,0.0,28.5346,0.0000,0.0738
21-Jun-2004,12:11:46,1.0,0.0,28.5370,0.0000,0.0741
21-Jun-2004,12:11:47,1.0,0.0,28.5400,0.0000,0.0741
21-Jun-2004,12:11:48,1.0,0.0,28.5433,0.0000,0.0738
21-Jun-2004,12:11:49,1.0,0.0,28.5469,0.0000,0.0736
21-Jun-2004,12:11:50,1.0,0.0,28.5512,0.0000,0.0738
21-Jun-2004,12:11:51,1.0,0.0,28.5551,0.0000,0.0741
21-Jun-2004,12:11:52,1.0,0.0,28.5579,0.0000,0.0740
21-Jun-2004,12:11:53,1.0,0.0,28.5615,0.0000,0.0737
21-Jun-2004,12:11:54,1.0,0.0,28.5619,0.0000,0.0737
21-Jun-2004,12:11:55,1.0,0.0,28.5620,0.0000,0.0740
21-Jun-2004,12:11:56,1.0,0.0,28.5649,0.0000,0.0742
21-Jun-2004,12:11:57,1.0,0.0,28.5644,0.0000,0.0739
21-Jun-2004,12:11:58,1.0,0.0,28.5638,0.0000,0.0735
21-Jun-2004,12:11:59,1.0,0.0,28.5648,0.0000,0.0738
21-Jun-2004,12:12:00,1.0,0.0,28.5656,0.0000,0.0743
21-Jun-2004,12:12:01,1.0,0.0,28.5661,0.0000,0.0741
21-Jun-2004,12:12:02,1.0,0.0,28.5658,0.0000,0.0738
21-Jun-2004,12:12:03,1.0,0.0,28.5660,0.0000,0.0737
21-Jun-2004,12:12:04,1.0,0.0,28.5667,0.0000,0.0740
21-Jun-2004,12:12:05,1.6,0.0,28.5676,0.0000,0.0741
21-Jun-2004,12:12:06,1.0,0.0,28.5683,0.0000,0.0740
21-Jun-2004,12:12:07,1.0,0.0,28.5688,0.0000,0.0737
21-Jun-2004,12:12:08,1.0,0.0,28.5697,0.0000,0.0738
21-Jun-2004,12:12:09,1.0,0.0,28.5707,0.0000,0.0741
21-Jun-2004,12:12:10,1.0,0.0,28.5717,0.0000,0.0744
21-Jun-2004,12:12:11,1.0,0.0,28.5728,0.0000,0.0741
21-Jun-2004,12:12:12,1.0,0.0,28.5734,0.0000,0.0736
21-Jun-2004,12:12:13,1.0,0.0,28.5742,0.0000,0.0740
21-Jun-2004,12:12:14,1.0,0.0,28.5751,0.0000,0.0743
21-Jun-2004,12:12:15,1.0,0.0,28.5762,0.0000,0.0741
21-Jun-2004,12:12:16,1.6,0.0,28.5769,0.0000,0.0738
21-Jun-2004,12:12:17,1.0,0.0,28.5776,0.0000,0.0741
21-Jun-2004,12:12:18,1.0,0.0,28.5786,0.0000,0.0742
21-Jun-2004,12:12:19,1.0,0.0,28.5795,0.0000,0.0743
21-Jun-2004,12:12:20,1.0,0.0,28.5803,0.0000,0.0741
21-Jun-2004,12:12:21,1.6,0.0,28.5810,0.0000,0.0739
21-Jun-2004,12:12:22,1.6,0.0,28.5818,0.0000,0.0741
21-Jun-2004,12:12:23,1.0,0.0,28.5827,0.0000,0.0742
21-Jun-2004,12:12:24,1.0,0.0,28.5838,0.0000,0.0741
21-Jun-2004,12:12:25,1.0,0.0,28.5847,0.0000,0.0739
21-Jun-2004,12:12:26,1.0,0.0,28.5857,0.0000,0.0740
21-Jun-2004,12:12:27,1.0,0.0,28.5867,0.0000,0.0739
21-Jun-2004,12:12:28,1.0,0.0,28.5883,0.0000,0.0745
21-Jun-2004,12:12:29,1.0,0.0,28.5898,0.0000,0.0745
21-Jun-2004,12:12:30,1.6,0.0,28.5909,0.0000,0.0738
21-Jun-2004,12:12:31,1.0,0.0,28.5915,0.0000,0.0738
21-Jun-2004,12:12:32,1.0,0.0,28.5923,0.0000,0.0741
21-Jun-2004,12:12:33,1.0,0.0,28.5935,0.0000,0.0743
21-Jun-2004,12:12:34,1.0,0.0,28.5942,0.0000,0.0744
21-Jun-2004,12:12:35,1.0,0.0,28.5947,0.0000,0.0741
21-Jun-2004,12:12:36,1.0,0.0,28.5949,0.0000,0.0739
21-Jun-2004,12:12:37,1.0,0.0,28.5951,0.0000,0.0738
21-Jun-2004,12:12:38,1.0,0.0,28.5956,0.0000,0.0741
21-Jun-2004,12:12:39,1.0,0.0,28.5962,0.0000,0.0743
21-Jun-2004,12:12:40,1.6,0.0,28.5969,0.0000,0.0743
21-Jun-2004,12:12:41,1.0,0.0,28.5974,0.0000,0.0741
21-Jun-2004,12:12:42,1.0,0.0,28.5980,0.0000,0.0739
21-Jun-2004,12:12:43,1.0,0.0,28.5984,0.0000,0.0738
21-Jun-2004,12:12:44,1.0,0.0,28.5990,0.0000,0.0742
21-Jun-2004,12:12:45,1.0,0.0,28.5999,0.0000,0.0743
21-Jun-2004,12:12:46,1.6,0.0,28.6005,0.0000,0.0740
21-Jun-2004,12:12:47,1.0,0.0,28.6010,0.0000,0.0738
21-Jun-2004,12:12:48,1.0,0.0,28.6017,0.0000,0.0740
21-Jun-2004,12:12:49,1.0,0.0,28.6025,0.0000,0.0741
21-Jun-2004,12:12:50,1.0,0.0,28.6033,0.0000,0.0741
21-Jun-2004,12:12:51,1.0,0.0,28.6039,0.0000,0.0740
21-Jun-2004,12:12:52,1.0,0.0,28.6044,0.0000,0.0739
21-Jun-2004,12:12:53,1.0,0.0,28.6053,0.0000,0.0742
21-Jun-2004,12:12:54,1.0,0.0,28.6061,0.0000,0.0741
21-Jun-2004,12:12:55,1.0,0.0,28.6067,0.0000,0.0739
21-Jun-2004,12:12:56,1.0,0.0,28.6073,0.0000,0.0737
21-Jun-2004,12:12:57,1.0,0.0,28.6080,0.0000,0.0740
21-Jun-2004,12:12:58,1.0,0.0,28.6091,0.0000,0.0746
21-Jun-2004,12:12:59,1.0,0.0,28.6099,0.0000,0.0742
21-Jun-2004,12:13:00,1.0,0.0,28.6103,0.0000,0.0736
21-Jun-2004,12:13:01,1.0,0.0,28.6109,0.0000,0.0738
21-Jun-2004,12:13:02,1.0,0.0,28.6119,0.0000,0.0741
21-Jun-2004,12:13:03,1.0,0.0,28.6127,0.0000,0.0740
21-Jun-2004,12:13:04,1.0,0.0,28.6136,0.0000,0.0743
21-Jun-2004,12:13:05,1.6,0.0,28.6145,0.0000,0.0741
21-Jun-2004,12:13:06,1.0,0.0,28.6146,0.0000,0.0738
21-Jun-2004,12:13:07,1.0,0.0,28.6155,0.0000,0.0739
21-Jun-2004,12:13:08,1.0,0.0,28.6166,0.0000,0.0743
21-Jun-2004,12:13:09,1.0,0.0,28.6176,0.0000,0.0741
21-Jun-2004,12:13:10,1.0,0.0,28.6181,0.0000,0.0737
21-Jun-2004,12:13:11,1.0,0.0,28.6187,0.0000,0.0738
21-Jun-2004,12:13:12,1.0,0.0,28.6199,0.0000,0.0744
21-Jun-2004,12:13:13,1.6,0.0,28.6206,0.0000,0.0739
21-Jun-2004,12:13:14,1.0,0.0,28.6213,0.0000,0.0741
21-Jun-2004,12:13:15,1.0,0.0,28.6219,0.0000,0.0739
21-Jun-2004,12:13:16,1.0,0.0,28.6227,0.0000,0.0738
21-Jun-2004,12:13:17,1.0,0.0,28.6236,0.0000,0.0738
21-Jun-2004,12:13:18,1.0,0.0,28.6242,0.0000,0.0739
21-Jun-2004,12:13:19,1.0,0.0,28.6251,0.0000,0.0743
21-Jun-2004,12:13:20,1.0,0.0,28.6257,0.0000,0.0740
21-Jun-2004,12:13:21,1.0,0.0,28.6266,0.0000,0.0739
21-Jun-2004,12:13:22,1.0,0.0,28.6272,0.0000,0.0739
21-Jun-2004,12:13:23,1.0,0.0,28.6279,0.0000,0.0738
21-Jun-2004,12:13:24,1.0,0.0,28.6287,0.0000,0.0739
21-Jun-2004,12:13:25,1.0,0.0,28.6295,0.0000,0.0740
21-Jun-2004,12:13:26,1.0,0.0,28.6304,0.0000,0.0741
21-Jun-2004,12:13:27,1.0,0.0,28.6310,0.0000,0.0739
21-Jun-2004,12:13:28,1.0,0.0,28.6316,0.0000,0.0738
21-Jun-2004,12:13:29,1.0,0.0,28.6324,0.0000,0.0738
21-Jun-2004,12:13:30,1.0,0.0,28.6330,0.0000,0.0739
21-Jun-2004,12:13:31,1.0,0.0,28.6337,0.0000,0.0739
21-Jun-2004,12:13:32,1.0,0.0,28.6344,0.0000,0.0739
21-Jun-2004,12:13:33,1.0,0.0,28.6350,0.0000,0.0739
21-Jun-2004,12:13:34,1.0,0.0,28.6357,0.0000,0.0739
21-Jun-2004,12:13:35,1.0,0.0,28.6362,0.0000,0.0740
21-Jun-2004,12:13:36,1.0,0.0,28.6369,0.0000,0.0739
21-Jun-2004,12:13:37,1.0,0.0,28.6372,0.0000,0.0736
21-Jun-2004,12:13:38,1.0,0.0,28.6377,0.0000,0.0737
21-Jun-2004,12:13:39,1.0,0.0,28.6386,0.0000,0.0739
21-Jun-2004,12:13:40,1.0,0.0,28.6393,0.0000,0.0741
21-Jun-2004,12:13:41,1.0,0.0,28.6401,0.0000,0.0741
21-Jun-2004,12:13:42,1.0,0.0,28.6405,0.0000,0.0736
21-Jun-2004,12:13:43,1.0,0.0,28.6410,0.0000,0.0736
21-Jun-2004,12:13:44,1.0,0.0,28.6417,0.0000,0.0741
21-Jun-2004,12:13:45,1.0,0.0,28.6425,0.0000,0.0739
21-Jun-2004,12:13:46,1.0,0.0,28.6427,0.0000,0.0737
21-Jun-2004,12:13:47,1.0,0.0,28.6433,0.0000,0.0737
21-Jun-2004,12:13:48,1.0,0.0,28.6440,0.0000,0.0738
21-Jun-2004,12:13:49,1.0,0.0,28.6449,0.0000,0.0741
21-Jun-2004,12:13:50,1.0,0.0,28.6455,0.0000,0.0739
21-Jun-2004,12:13:51,1.0,0.0,28.6459,0.0000,0.0739
21-Jun-2004,12:13:52,1.0,0.0,28.6465,0.0000,0.0741
21-Jun-2004,12:13:53,1.0,0.0,28.6470,0.0000,0.0735
21-Jun-2004,12:13:54,1.0,0.0,28.6473,0.0000,0.0735
21-Jun-2004,12:13:55,1.6,0.0,28.6480,0.0000,0.0742
21-Jun-2004,12:13:56,1.0,0.0,28.6490,0.0000,0.0741
21-Jun-2004,12:13:57,1.0,0.0,28.6493,0.0000,0.0736
21-Jun-2004,12:13:58,1.0,0.0,28.6496,0.0000,0.0737
21-Jun-2004,12:13:59,1.0,0.0,28.6504,0.0000,0.0741
21-Jun-2004,12:14:00,1.0,0.0,28.6508,0.0000,0.0738
21-Jun-2004,12:14:01,1.0,0.0,28.6512,0.0000,0.0736
21-Jun-2004,12:14:02,1.0,0.0,28.6517,0.0000,0.0736
21-Jun-2004,12:14:03,1.0,0.0,28.6524,0.0000,0.0739
21-Jun-2004,12:14:04,1.0,0.0,28.6529,0.0000,0.0741